Shawnee, OK

9:22 AM CST on November 22, 2017 (GMT -0600)
Shawnee Municipal

Weather History for KSNL - January, 2012

Change the Weather History Date:

Monday, January 16, 2012

  Actual Average (KTIK) Record (KTIK)
Temperature  
Mean Temperature 63 °F -  
Max Temperature 73 °F 47 °F 69 °F (2012)
Min Temperature 53 °F 27 °F 11 °F (2009)
Degree Days  
Heating Degree Days 2    
Growing Degree Days 13 (Base 50)    
Moisture  
Dew Point 51 °F    
Average Humidity 72    
Maximum Humidity 88    
Minimum Humidity 46    
Precipitation  
Precipitation 0.00 in - - ()
Sea Level Pressure  
Sea Level Pressure 29.87 in    
Wind  
Wind Speed 19 mph (SSW)    
Max Wind Speed 26 mph    
Max Gust Speed 39 mph    
Visibility 10 miles    
Events      
Averages and records for this station are not official NWS values.
T = Trace of Precipitation, MM = Missing Value Source: NWS Daily Summary

Daily Weather History Graph

Daily Weather History Graph

Search for Another Location

Airport or City:

Trip Planner

Search our weather history database for the weather conditions in past years. The results will help you decide how hot, cold, wet, or windy it might be!

Date:

Astronomy

Jan. 16, 2012 Rise Set
Actual Time 7:35 AM CST 5:39 PM CST
Civil Twilight 7:08 AM CST 6:06 PM CST
Nautical Twilight 6:37 AM CST 6:37 PM CST
Astronomical Twilight 6:06 AM CST 7:08 PM CST
Moon 12:50 AM CST (1/16) 11:50 AM CST (1/16)
Length of Visible Light 10h 58m
Length of Day
10h 03m
Last Quarter, 46% of the Moon is Illuminated
Jan 16
Last Quarter
Jan 23
New
Jan 30
First Quarter
Feb 7
Full
Feb 14
Last Quarter

Hourly Weather History & Observations

Time (CST) Temp. Dew Point Humidity Pressure Visibility Wind Dir Wind Speed Gust Speed Precip Events Conditions
12:15 AM 55.4 °F 48.2 °F 77% 29.93 in 10.0 mi South 20.7 mph 27.6 mph N/A   Clear
2:35 AM 53.6 °F 48.2 °F 82% 29.92 in 10.0 mi South 17.3 mph 24.2 mph N/A   Clear
2:55 AM 53.6 °F 48.2 °F 82% 29.92 in 10.0 mi SSW 17.3 mph 21.9 mph N/A   Clear
3:15 AM 53.6 °F 48.2 °F 82% 29.92 in 10.0 mi South 18.4 mph 26.5 mph N/A   Clear
3:35 AM 53.6 °F 48.2 °F 82% 29.92 in 10.0 mi South 16.1 mph 21.9 mph N/A   Clear
3:55 AM 53.6 °F 50.0 °F 88% 29.91 in 10.0 mi SSW 17.3 mph 24.2 mph N/A   Clear
4:15 AM 53.6 °F 50.0 °F 88% 29.90 in 10.0 mi South 18.4 mph 26.5 mph N/A   Clear
4:35 AM 55.4 °F 50.0 °F 82% 29.89 in 10.0 mi South 17.3 mph 26.5 mph N/A   Clear
4:55 AM 53.6 °F 50.0 °F 88% 29.89 in 10.0 mi South 16.1 mph 27.6 mph N/A   Clear
5:15 AM 53.6 °F 50.0 °F 88% 29.90 in 10.0 mi South 13.8 mph 21.9 mph N/A   Clear
5:35 AM 53.6 °F 50.0 °F 88% 29.90 in 10.0 mi South 13.8 mph - N/A   Clear
5:55 AM 53.6 °F 50.0 °F 88% 29.90 in 10.0 mi South 15.0 mph 18.4 mph N/A   Clear
6:15 AM 53.6 °F 50.0 °F 88% 29.91 in 10.0 mi South 15.0 mph - N/A   Clear
6:35 AM 53.6 °F 50.0 °F 88% 29.91 in 10.0 mi SSW 13.8 mph - N/A   Clear
7:15 AM 55.4 °F 51.8 °F 88% 29.92 in 10.0 mi SSW 15.0 mph 20.7 mph N/A   Scattered Clouds
7:35 AM 55.4 °F 51.8 °F 88% 29.92 in 10.0 mi SSW 13.8 mph 19.6 mph N/A   Mostly Cloudy
7:55 AM 55.4 °F 51.8 °F 88% 29.92 in 10.0 mi SSW 18.4 mph 23.0 mph N/A   Scattered Clouds
8:15 AM 55.4 °F 51.8 °F 88% 29.91 in 10.0 mi SSW 19.6 mph 26.5 mph N/A   Clear
8:35 AM 55.4 °F 51.8 °F 88% 29.91 in 10.0 mi SSW 20.7 mph 26.5 mph N/A   Clear
8:55 AM 55.4 °F 51.8 °F 88% 29.92 in 10.0 mi SSW 19.6 mph 28.8 mph N/A   Scattered Clouds
9:15 AM 57.2 °F 51.8 °F 82% 29.93 in 10.0 mi SSW 20.7 mph 29.9 mph N/A   Scattered Clouds
9:35 AM 59.0 °F 53.6 °F 82% 29.92 in 10.0 mi SSW 23.0 mph 26.5 mph N/A   Mostly Cloudy
9:55 AM 59.0 °F 53.6 °F 82% 29.93 in 10.0 mi SSW 19.6 mph 29.9 mph N/A   Overcast
10:15 AM 59.0 °F 53.6 °F 82% 29.92 in 10.0 mi SSW 23.0 mph 28.8 mph N/A   Mostly Cloudy
10:35 AM 60.8 °F 53.6 °F 77% 29.92 in 10.0 mi SSW 24.2 mph 32.2 mph N/A   Scattered Clouds
10:55 AM 64.4 °F 53.6 °F 68% 29.92 in 10.0 mi SSW 24.2 mph 39.1 mph N/A   Scattered Clouds
11:15 AM 64.4 °F 53.6 °F 68% 29.91 in 10.0 mi SW 26.5 mph 38.0 mph N/A   Clear
11:35 AM 64.4 °F 51.8 °F 64% 29.90 in 10.0 mi SSW 21.9 mph 34.5 mph N/A   Clear
11:55 AM 64.4 °F 51.8 °F 64% 29.89 in 10.0 mi SSW 26.5 mph 32.2 mph N/A   Clear
12:15 PM 64.4 °F 51.8 °F 64% 29.88 in 10.0 mi SSW 19.6 mph 32.2 mph N/A   Clear
12:35 PM 66.2 °F 51.8 °F 60% 29.86 in 10.0 mi SW 19.6 mph 28.8 mph N/A   Clear
12:55 PM 66.2 °F 51.8 °F 60% 29.85 in 10.0 mi SSW 23.0 mph 34.5 mph N/A   Clear
1:15 PM 69.8 °F 51.8 °F 53% 29.83 in 10.0 mi SSW 21.9 mph 27.6 mph N/A   Clear
1:35 PM 69.8 °F 51.8 °F 53% 29.82 in 10.0 mi SSW 19.6 mph 25.3 mph N/A   Clear
1:55 PM 69.8 °F 51.8 °F 53% 29.81 in 10.0 mi SW 19.6 mph 26.5 mph N/A   Clear
2:15 PM 69.8 °F 51.8 °F 53% 29.80 in 10.0 mi SSW 19.6 mph 27.6 mph N/A   Clear
2:35 PM 71.6 °F 51.8 °F 50% 29.79 in 10.0 mi SSW 21.9 mph 27.6 mph N/A   Clear
2:55 PM 71.6 °F 50.0 °F 46% 29.78 in 10.0 mi SSW 17.3 mph 24.2 mph N/A   Clear
3:15 PM 71.6 °F 51.8 °F 50% 29.77 in 10.0 mi SSW 17.3 mph 23.0 mph N/A   Clear
3:35 PM 73.4 °F 51.8 °F 47% 29.77 in 10.0 mi SSW 18.4 mph 27.6 mph N/A   Clear
3:55 PM 69.8 °F 51.8 °F 53% 29.76 in 10.0 mi SSW 19.6 mph 26.5 mph N/A   Clear
4:15 PM 69.8 °F 51.8 °F 53% 29.77 in 10.0 mi SSW 21.9 mph 26.5 mph N/A   Clear
4:35 PM 69.8 °F 51.8 °F 53% 29.77 in 10.0 mi South 18.4 mph 26.5 mph N/A   Clear
4:55 PM 69.8 °F 51.8 °F 53% 29.76 in 10.0 mi South 19.6 mph 26.5 mph N/A   Clear
5:35 PM 69.8 °F 53.6 °F 56% 29.75 in 10.0 mi South 15.0 mph 23.0 mph N/A   Clear
5:55 PM 69.8 °F 55.4 °F 60% 29.75 in 10.0 mi South 15.0 mph 24.2 mph N/A   Clear
6:15 PM 66.2 °F 53.6 °F 64% 29.75 in 10.0 mi South 15.0 mph - N/A   Clear
6:35 PM 66.2 °F 55.4 °F 68% 29.75 in 10.0 mi South 15.0 mph - N/A   Clear
6:55 PM 66.2 °F 57.2 °F 73% 29.75 in 10.0 mi South 18.4 mph 25.3 mph N/A   Clear
7:15 PM 64.4 °F 57.2 °F 77% 29.75 in 10.0 mi South 16.1 mph 23.0 mph N/A   Clear
7:35 PM 64.4 °F 57.2 °F 77% 29.75 in 10.0 mi South 16.1 mph 23.0 mph N/A   Clear
7:55 PM 64.4 °F 57.2 °F 77% 29.75 in 10.0 mi South 18.4 mph 26.5 mph N/A   Clear
8:15 PM 64.4 °F 57.2 °F 77% 29.76 in 10.0 mi South 17.3 mph 24.2 mph N/A   Clear
8:35 PM 64.4 °F 59.0 °F 83% 29.77 in 10.0 mi South 15.0 mph 21.9 mph N/A   Clear
8:55 PM 64.4 °F 59.0 °F 83% 29.77 in 10.0 mi SSW 17.3 mph 24.2 mph N/A   Clear
9:15 PM 64.4 °F 59.0 °F 83% 29.77 in 10.0 mi South 17.3 mph 21.9 mph N/A   Clear
10:15 PM 64.4 °F 59.0 °F 83% 29.77 in 10.0 mi SSW 17.3 mph 26.5 mph N/A   Clear
10:35 PM 62.6 °F 57.2 °F 82% 29.77 in 10.0 mi SSW 17.3 mph 23.0 mph N/A   Clear
10:55 PM 62.6 °F 57.2 °F 82% 29.77 in 10.0 mi SSW 16.1 mph 21.9 mph N/A   Clear
11:15 PM 62.6 °F 55.4 °F 77% 29.77 in 10.0 mi SSW 16.1 mph 21.9 mph N/A   Clear
11:35 PM 62.6 °F 55.4 °F 77% 29.78 in 10.0 mi SSW 17.3 mph - N/A   Clear
11:55 PM 62.6 °F 55.4 °F 77% 29.78 in 10.0 mi SSW 17.3 mph 24.2 mph N/A   Clear